Weather History for Sanford, FL

Change the Weather History Date:

Tuesday, March 5, 2013

  Actual Average Record
Temperature  
Mean Temperature 59 °F -  
Max Temperature 75 °F 76 °F 88 °F (1989)
Min Temperature 43 °F 53 °F 35 °F (1971)
Degree Days  
Heating Degree Days 6    
Growing Degree Days 9 (Base 50)    
Moisture  
Dew Point 41 °F    
Average Humidity 50    
Maximum Humidity 89    
Minimum Humidity 26    
Precipitation  
Precipitation 0.00 in - - ()
Sea Level Pressure  
Sea Level Pressure 30.10 in    
Wind  
Wind Speed 5 mph (SW)    
Max Wind Speed 18 mph    
Max Gust Speed 23 mph    
Visibility 10 miles    
Events      
Averages and records for this station are not official NWS values.
T = Trace of Precipitation, MM = Missing Value Source: NWS Daily Summary

Daily Weather History Graph

Daily Weather History Graph

Search for Another Location

Airport:

Trip Planner

Search our weather history database for the weather conditions in past years. The results will help you decide how hot, cold, wet, or windy it might be!

Date:

Astronomy

Mar. 05, 2013 Rise Set
Actual Time 6:45 AM EST 6:27 PM EST
Civil Twilight 6:21 AM EST 6:51 PM EST
Nautical Twilight 5:54 AM EST 7:18 PM EST
Astronomical Twilight 5:27 AM EST 7:46 PM EST
Moon 1:35 AM EST (3/5) 12:25 PM EST (3/5)
Length of Visible Light 12h 29m
Length of Day
11h 42m
Last Quarter, 41% of the Moon is Illuminated
Mar 5
Last Quarter
Mar 11
New
Mar 19
First Quarter
Mar 27
Full
Apr 3
Last Quarter

Hourly Weather History & Observations

Time (EST) Temp. Windchill Dew Point Humidity Pressure Visibility Wind Dir Wind Speed Gust Speed Precip Events Conditions
12:53 AM 45.0 °F - 37.9 °F 76% 30.17 in 10.0 mi Calm Calm - 0.00 in   Clear
2:53 AM 45.0 °F - 37.0 °F 74% 30.15 in 10.0 mi Calm Calm - N/A   Clear
3:53 AM 44.1 °F - 37.9 °F 79% 30.14 in 10.0 mi Calm Calm - N/A   Clear
4:53 AM 44.1 °F 41.5 °F 39.0 °F 82% 30.14 in 10.0 mi SSW 4.6 mph - 0.00 in   Clear
5:53 AM 43.0 °F - 39.9 °F 89% 30.17 in 10.0 mi Calm Calm - N/A   Clear
8:53 AM 55.9 °F - 42.1 °F 60% 30.20 in 10.0 mi South 4.6 mph - N/A   Clear
9:53 AM 63.0 °F - 42.1 °F 46% 30.20 in 10.0 mi SSW 6.9 mph - N/A   Clear
10:53 AM 68.0 °F - 39.0 °F 35% 30.18 in 10.0 mi South 8.1 mph - N/A   Clear
11:53 AM 70.0 °F - 37.0 °F 30% 30.17 in 10.0 mi SW 9.2 mph - N/A   Clear
12:53 PM 73.0 °F - 37.0 °F 27% 30.14 in 10.0 mi SW 11.5 mph 17.3 mph N/A   Clear
1:53 PM 73.9 °F - 37.0 °F 26% 30.10 in 10.0 mi SW 9.2 mph 16.1 mph N/A   Clear
2:53 PM 75.0 °F - 41.0 °F 29% 30.06 in 10.0 mi WSW 9.2 mph 20.7 mph N/A   Clear
3:53 PM 75.9 °F - 41.0 °F 29% 30.07 in 10.0 mi West 18.4 mph 23.0 mph N/A   Clear
4:53 PM 73.9 °F - 42.1 °F 32% 30.06 in 10.0 mi WSW 11.5 mph 20.7 mph N/A   Clear
5:53 PM 73.0 °F - 41.0 °F 31% 30.04 in 10.0 mi WSW 13.8 mph - N/A   Clear
6:53 PM 70.0 °F - 42.1 °F 36% 30.04 in 10.0 mi SW 8.1 mph - N/A   Clear
7:53 PM 68.0 °F - 41.0 °F 37% 30.04 in 10.0 mi SSW 8.1 mph - N/A   Clear
8:53 PM 64.9 °F - 41.0 °F 42% 30.04 in 10.0 mi SW 10.4 mph - N/A   Clear
9:53 PM 64.0 °F - 45.0 °F 50% 30.04 in 10.0 mi SW 11.5 mph - N/A   Clear
10:53 PM 63.0 °F - 52.0 °F 67% 30.03 in 10.0 mi SW 12.7 mph 19.6 mph N/A   Scattered Clouds
11:53 PM 64.0 °F - 55.0 °F 73% 30.01 in 10.0 mi SW 10.4 mph 19.6 mph N/A   Overcast